Location: Bakhuizen
(52.8696°N, 5.4575°E)
Time: 05:37:08
(UTC+00:00)

Nimbus 7 Rocket - Pass Details

Date: 02 October 2021
Orbit: 922 x 965 km, 99.4° (Epoch: 17 October)

Event Time Altitude Azimuth Distance (km) Brightness Sun altitude
Rises 00:06:22 0° 15° (NNE) 3,588 8.4 -40.1°
Reaches altitude 10° 00:08:49 10° 13° (NNE) 2,645 7.4 -40.0°
Enters shadow 00:11:40 30° 5° (N) 1,614 6.0 -39.9°
